Regional Weather Roundup
Issued by NWS Nashville, TN

Home | Current Version | Previous Version | Text Only | Print | Product List | Glossary On
Versions: 1 2 3 4 5 6 7 8 9 10 11 12 13 14 15 16 17 18 19 20 21 22 23 24 25 26 27 28 29 30 31 32 33 34 35 36 37 38 39 40 41 42 43 44 45 46 47 48 49 50
000
ASUS44 KOHX 270900
RWROHX
MIDDLE TENNESSEE HOURLY WEATHER ROUNDUP
NATIONAL WEATHER SERVICE NASHVILLE TN
400 AM CDT FRI MAR 27 2015

NOTE: "FAIR" INDICATES FEW OR NO CLOUDS BELOW 12,000 FEET WITH
NO SIGNIFICANT WEATHER AND/OR OBSTRUCTIONS TO VISIBILITY.

* THESE REPORTS ARE NOT UNDER NWS QUALITY CONTROL AND MAY NOT
  REPORT WEATHER SUCH AS PRECIPITATION AND FOG.


TNZ005>011-023>034-057-059-062>066-078-080-271000
...NORTHERN MIDDLE TENNESSEE...

CITY           SKY/WX    TMP DP  RH WIND       PRES   REMARKS
CLARKSVILLE    CLEAR     32  32 100 NW5       29.97F FOG     WCI  27
CROSSVILLE     CLOUDY    39  35  86 N9        29.86F WCI  33
NASHVILLE      MOCLDY    37  34  89 NW6       29.96F WCI  32
SPARTA         CLOUDY    39  37  93 N5        29.89F
$$
TNZ056-058-060-061-075>077-079-093>097-271000
...SOUTHERN MIDDLE TENNESSEE...

CITY           SKY/WX    TMP DP  RH WIND       PRES   REMARKS
COLUMBIA       CLEAR     36  36 100 CALM      29.93F
MCMINNVILLE    MOCLDY    39  39 100 N8        29.90F WCI  34
SHELBYVILLE    CLOUDY    39  37  93 N8        29.94S WCI  34
TULLAHOMA      CLOUDY    37  36  93 N8        29.91S WCI  31
WINCHESTER     CLOUDY    39  39 100 N8        29.90F WCI  34
$$


...KEY TO REMARKS...
VSB - VISIBILITY IN MILES
WCI - WIND CHILL INDEX
HX  - HEAT INDEX



USA.gov is the U.S. government's official web portal to all federal, state and local government web resources and services.